Back to catalog

STARLINK-34510

AliveCommunicationsVLEO
NORAD 64596·PAYLOAD·🇺🇸 United States

Launched Jun 25, 2025 from Cape Canaveral Space Force Station

Loading…

Next Passes (next 24 hours)

TLE

FreshSource: CelesTrak SupGP

Epoch: Sep 14, 2026, 14:00 UTC

1 64596C 25137C   26257.58381944  .00054977  00000+0  16251-2 0  2577
2 64596  53.1568 175.2472 0001125  81.4297 222.2943 15.34348687    12

Track STARLINK-34510 in real time with AllMySat

Download on the App Store